QPF
0.05 0.06 0.07 0.09 0.09 0.10 0.09 0.06 0.06 0.05 0.04 0.04 0.05 0.05 0.05 0.05 0.06 0.05 0.04 0.04 0.05 0.05 0.05 0.05 0.05 0.06 0.08 0.08 0.07 0.07 0.06 0.06 0.06 0.02 0.01 0.02 0.04 0.05 0.03 0.03 0.03 0.04 0.04
0.05 0.08 0.09 0.11 0.13 0.14 0.10 0.08 0.06 0.04 0.05 0.05 0.03 0.04 0.05 0.06 0.06 0.05 0.05 0.04 0.04 0.05 0.05 0.05 0.05 0.06 0.08 0.09 0.07 0.06 0.06 0.07 0.07 0.05 0.03 0.03 0.03 0.05 0.05 0.04 0.03 0.03 0.03
0.04 0.08 0.11 0.12 0.12 0.12 0.09 0.08 0.06 0.05 0.06 0.06 0.06 0.05 0.05 0.05 0.05 0.04 0.04 0.04 0.05 0.05 0.06 0.07 0.07 0.07 0.08 0.08 0.07 0.06 0.06 0.06 0.08 0.07 0.05 0.04 0.04 0.07 0.07 0.04 0.04 0.04 0.03
0.06 0.09 0.12 0.11 0.09 0.09 0.08 0.09 0.07 0.06 0.06 0.05 0.04 0.04 0.04 0.05 0.06 0.06 0.07 0.07 0.07 0.08 0.07 0.06 0.05 0.05 0.05 0.04 0.04 0.05 0.05 0.05 0.06 0.07 0.06 0.05 0.07 0.08 0.08 0.05 0.05 0.06 0.04
0.07 0.08 0.09 0.10 0.09 0.07 0.08 0.08 0.06 0.05 0.04 0.04 0.03 0.03 0.03 0.03 0.04 0.04 0.05 0.05 0.05 0.04 0.03 0.03 0.03 0.02 0.02 0.02 0.02 0.02 0.03 0.04 0.04 0.05 0.05 0.06 0.07 0.08 0.07 0.06 0.07 0.07 0.06
0.06 0.07 0.07 0.08 0.06 0.06 0.07 0.06 0.05 0.04 0.05 0.05 0.04 0.02 0.02 0.02 0.04 0.05 0.04 0.03 0.03 0.02 0.03 0.03 0.03 0.02 0.01 0.01 0.01 0.01 0.01 0.02 0.03 0.03 0.04 0.05 0.05 0.07 0.07 0.06 0.06 0.06 0.05
0.06 0.05 0.06 0.06 0.06 0.06 0.04 0.04 0.04 0.04 0.04 0.05 0.04 0.03 0.02 0.03 0.04 0.03 0.03 0.02 0.02 0.03 0.04 0.04 0.03 0.01 0.01 0.01 0.01 0.01 0.00 0.01 0.01 0.02 0.04 0.04 0.05 0.05 0.07 0.07 0.07 0.07 0.06
0.04 0.03 0.04 0.06 0.05 0.04 0.04 0.03 0.04 0.05 0.05 0.05 0.04 0.04 0.05 0.04 0.02 0.01 0.02 0.02 0.03 0.03 0.03 0.03 0.02 0.01 0.01 0.01 0.01 0.01 0.01 0.02 0.02 0.02 0.03 0.03 0.03 0.05 0.06 0.05 0.05 0.05 0.05
0.03 0.02 0.03 0.04 0.04 0.03 0.04 0.06 0.05 0.05 0.06 0.06 0.05 0.05 0.06 0.05 0.03 0.02 0.02 0.03 0.04 0.03 0.02 0.02 0.01 0.01 0.01 0.01 0.01 0.01 0.02 0.02 0.01 0.01 0.02 0.02 0.02 0.02 0.03 0.03 0.04 0.04 0.04
0.04 0.03 0.03 0.03 0.04 0.06 0.06 0.06 0.06 0.05 0.05 0.05 0.05 0.06 0.06 0.05 0.04 0.03 0.02 0.02 0.03 0.02 0.01 0.01 0.01 0.01 0.01 0.01 0.02 0.02 0.02 0.02 0.02 0.02 0.02 0.02 0.02 0.02 0.02 0.03 0.04 0.05 0.05
0.04 0.04 0.04 0.05 0.06 0.07 0.05 0.05 0.05 0.04 0.05 0.04 0.04 0.05 0.05 0.04 0.03 0.03 0.02 0.02 0.02 0.01 0.01 0.02 0.02 0.01 0.01 0.01 0.02 0.02 0.02 0.02 0.02 0.03 0.02 0.02 0.02 0.03 0.04 0.04 0.04 0.05 0.05
0.03 0.03 0.04 0.05 0.05 0.03 0.04 0.04 0.04 0.04 0.04 0.06 0.06 0.05 0.05 0.04 0.03 0.03 0.03 0.03 0.02 0.02 0.02 0.02 0.02 0.01 0.01 0.01 0.02 0.02 0.02 0.02 0.03 0.03 0.03 0.02 0.02 0.02 0.03 0.04 0.04 0.04 0.04
0.04 0.04 0.05 0.04 0.04 0.04 0.04 0.05 0.05 0.05 0.05 0.05 0.04 0.03 0.03 0.03 0.03 0.04 0.04 0.03 0.02 0.03 0.02 0.01 0.01 0.01 0.01 0.02 0.02 0.02 0.02 0.02 0.02 0.03 0.02 0.02 0.03 0.03 0.03 0.03 0.04 0.04 0.03
0.07 0.07 0.07 0.06 0.04 0.04 0.04 0.04 0.04 0.03 0.03 0.02 0.02 0.02 0.02 0.02 0.03 0.04 0.05 0.05 0.04 0.03 0.02 0.02 0.01 0.02 0.02 0.02 0.02 0.02 0.01 0.02 0.02 0.02 0.03 0.03 0.03 0.03 0.03 0.03 0.03 0.03 0.03
0.06 0.06 0.05 0.05 0.05 0.04 0.03 0.03 0.02 0.02 0.01 0.02 0.02 0.02 0.02 0.02 0.03 0.04 0.05 0.05 0.05 0.04 0.02 0.03 0.03 0.03 0.03 0.03 0.03 0.03 0.02 0.02 0.01 0.01 0.02 0.02 0.02 0.02 0.02 0.03 0.04 0.04 0.03
0.02 0.02 0.02 0.02 0.03 0.03 0.02 0.01 0.01 0.01 0.00 0.01 0.01 0.01 0.01 0.01 0.02 0.03 0.03 0.03 0.04 0.04 0.03 0.03 0.03 0.03 0.03 0.03 0.03 0.03 0.03 0.03 0.02 0.01 0.01 0.01 0.01 0.01 0.02 0.03 0.04 0.04 0.04
0.02 0.01 0.01 0.01 0.01 0.02 0.02 0.02 0.01 0.01 0.00 0.01 0.01 0.01 0.01 0.01 0.01 0.02 0.02 0.02 0.02 0.03 0.03 0.03 0.02 0.02 0.01 0.02 0.02 0.02 0.02 0.03 0.02 0.01 0.01 0.01 0.01 0.02 0.03 0.03 0.04 0.04 0.04
0.01 0.01 0.01 0.01 0.01 0.01 0.01 0.01 0.01 0.01 0.00 0.00 0.01 0.01 0.01 0.01 0.02 0.02 0.02 0.02 0.01 0.01 0.01 0.01 0.01 0.01 0.01 0.01 0.01 0.02 0.02 0.02 0.02 0.02 0.02 0.02 0.02 0.02 0.02 0.02 0.02 0.02 0.02
0.01 0.01 0.01 0.00 0.00 0.01 0.01 0.01 0.01 0.01 0.01 0.00 0.00 0.01 0.01 0.01 0.02 0.03 0.02 0.02 0.01 0.01 0.01 0.01 0.01 0.01 0.01 0.01 0.01 0.01 0.01 0.02 0.04 0.05 0.03 0.02 0.02 0.01 0.01 0.01 0.02 0.02 0.01
0.01 0.01 0.01 0.01 0.00 0.00 0.01 0.01 0.01 0.01 0.01 0.00 0.00 0.00 0.01 0.01 0.01 0.02 0.03 0.02 0.01 0.02 0.01 0.02 0.03 0.04 0.04 0.03 0.01 0.01 0.02 0.03 0.04 0.03 0.02 0.02 0.02 0.02 0.01 0.01 0.02 0.01 0.01
0.01 0.01 0.01 0.01 0.01 0.00 0.00 0.00 0.00 0.00 0.00 0.01 0.01 0.01 0.01 0.01 0.01 0.02 0.02 0.02 0.02 0.02 0.02 0.02 0.03 0.05 0.04 0.03 0.02 0.02 0.02 0.03 0.03 0.02 0.03 0.03 0.03 0.02 0.01 0.01 0.01 0.01 0.01
0.00 0.00 0.00 0.00 0.00 0.00 0.00 0.00 0.00 0.00 0.00 0.01 0.01 0.01 0.01 0.01 0.02 0.03 0.03 0.02 0.02 0.01 0.01 0.02 0.02 0.02 0.02 0.02 0.02 0.02 0.02 0.02 0.02 0.02 0.02 0.02 0.02 0.02 0.02 0.01 0.01 0.01 0.01
0.00 0.00 0.00 0.00 0.01 0.01 0.01 0.01 0.00 0.00 0.00 0.00 0.01 0.01 0.01 0.01 0.02 0.02 0.03 0.02 0.02 0.01 0.01 0.01 0.02 0.02 0.02 0.02 0.01 0.02 0.02 0.01 0.01 0.01 0.02 0.02 0.02 0.02 0.02 0.02 0.02 0.01 0.01
0.01 0.01 0.01 0.01 0.01 0.01 0.01 0.00 0.01 0.00 0.00 0.00 0.01 0.01 0.01 0.01 0.01 0.01 0.02 0.02 0.01 0.01 0.01 0.01 0.01 0.01 0.01 0.01 0.01 0.02 0.02 0.02 0.02 0.02 0.02 0.03 0.03 0.03 0.03 0.03 0.02 0.02 0.02
0.00 0.00 0.01 0.01 0.01 0.01 0.01 0.01 0.01 0.01 0.01 0.01 0.01 0.01 0.01 0.01 0.01 0.01 0.01 0.01 0.01 0.01 0.01 0.01 0.01 0.01 0.01 0.01 0.01 0.01 0.01 0.02 0.02 0.02 0.02 0.02 0.02 0.02 0.02 0.02 0.02 0.02 0.01
0.00 0.00 0.00 0.00 0.01 0.01 0.01 0.01 0.01 0.01 0.01 0.01 0.01 0.01 0.01 0.01 0.01 0.01 0.01 0.02 0.01 0.01 0.01 0.01 0.01 0.01 0.01 0.00 0.00 0.00 0.01 0.01 0.01 0.01 0.01 0.01 0.01 0.01 0.02 0.01 0.01 0.02 0.01
MSLP
1013.86 1013.56 1013.32 1013.14 1013.00 1012.88 1012.75 1012.62 1012.47 1012.31 1012.14 1011.98 1011.82 1011.67 1011.52 1011.36 1011.19 1011.00 1010.78 1010.53 1010.26 1009.98 1009.69 1009.40 1009.11 1008.84 1008.56 1008.28 1007.98 1007.64 1007.26 1006.82 1006.32 1005.75 1005.12 1004.46 1003.80 1003.16 1002.58 1002.09 1001.71 1001.47 1001.35
1014.01 1013.70 1013.45 1013.27 1013.14 1013.02 1012.91 1012.78 1012.63 1012.46 1012.27 1012.08 1011.90 1011.72 1011.56 1011.39 1011.22 1011.04 1010.83 1010.58 1010.30 1009.99 1009.66 1009.32 1008.97 1008.63 1008.30 1007.98 1007.66 1007.31 1006.94 1006.51 1006.03 1005.48 1004.86 1004.20 1003.52 1002.87 1002.26 1001.74 1001.35 1001.08 1000.95
1014.15 1013.84 1013.60 1013.44 1013.33 1013.24 1013.14 1013.03 1012.87 1012.69 1012.48 1012.26 1012.04 1011.84 1011.65 1011.48 1011.31 1011.13 1010.93 1010.69 1010.41 1010.09 1009.73 1009.36 1008.97 1008.59 1008.22 1007.87 1007.52 1007.17 1006.80 1006.38 1005.90 1005.36 1004.75 1004.08 1003.40 1002.72 1002.10 1001.57 1001.16 1000.89 1000.75
1014.27 1013.99 1013.79 1013.67 1013.59 1013.53 1013.45 1013.34 1013.18 1012.98 1012.74 1012.48 1012.23 1011.99 1011.77 1011.58 1011.40 1011.22 1011.03 1010.80 1010.52 1010.20 1009.85 1009.46 1009.06 1008.66 1008.28 1007.91 1007.56 1007.21 1006.83 1006.41 1005.94 1005.40 1004.78 1004.12 1003.42 1002.74 1002.12 1001.59 1001.18 1000.91 1000.78
1014.39 1014.15 1014.00 1013.92 1013.88 1013.85 1013.79 1013.68 1013.51 1013.28 1013.01 1012.71 1012.41 1012.13 1011.88 1011.66 1011.46 1011.27 1011.08 1010.85 1010.59 1010.29 1009.94 1009.56 1009.17 1008.78 1008.40 1008.04 1007.70 1007.34 1006.97 1006.56 1006.08 1005.54 1004.92 1004.25 1003.56 1002.89 1002.28 1001.76 1001.37 1001.12 1001.01
1014.52 1014.33 1014.23 1014.19 1014.18 1014.16 1014.11 1013.99 1013.80 1013.54 1013.23 1012.89 1012.54 1012.22 1011.93 1011.68 1011.46 1011.25 1011.05 1010.83 1010.58 1010.28 1009.96 1009.60 1009.23 1008.87 1008.51 1008.17 1007.83 1007.49 1007.13 1006.72 1006.24 1005.70 1005.08 1004.42 1003.75 1003.09 1002.50 1002.02 1001.67 1001.45 1001.38
1014.65 1014.50 1014.43 1014.42 1014.42 1014.41 1014.34 1014.20 1013.98 1013.69 1013.34 1012.96 1012.58 1012.22 1011.90 1011.62 1011.38 1011.16 1010.95 1010.72 1010.47 1010.19 1009.88 1009.55 1009.20 1008.86 1008.53 1008.21 1007.89 1007.56 1007.20 1006.80 1006.33 1005.79 1005.18 1004.54 1003.89 1003.27 1002.73 1002.29 1001.99 1001.82 1001.78
1014.76 1014.65 1014.60 1014.59 1014.58 1014.55 1014.45 1014.28 1014.03 1013.70 1013.32 1012.91 1012.51 1012.14 1011.80 1011.50 1011.25 1011.02 1010.80 1010.57 1010.32 1010.04 1009.74 1009.41 1009.09 1008.76 1008.44 1008.14 1007.83 1007.50 1007.15 1006.75 1006.28 1005.75 1005.17 1004.55 1003.94 1003.37 1002.87 1002.49 1002.24 1002.12 1002.12
1014.86 1014.76 1014.70 1014.67 1014.63 1014.56 1014.42 1014.20 1013.92 1013.56 1013.17 1012.76 1012.37 1012.00 1011.67 1011.38 1011.13 1010.91 1010.68 1010.44 1010.18 1009.90 1009.59 1009.26 1008.93 1008.60 1008.28 1007.97 1007.66 1007.33 1006.97 1006.56 1006.10 1005.58 1005.02 1004.43 1003.86 1003.34 1002.90 1002.57 1002.36 1002.27 1002.30
1014.95 1014.83 1014.75 1014.68 1014.59 1014.46 1014.27 1014.01 1013.69 1013.33 1012.94 1012.55 1012.19 1011.86 1011.57 1011.31 1011.09 1010.87 1010.65 1010.40 1010.13 1009.82 1009.49 1009.14 1008.78 1008.43 1008.09 1007.76 1007.42 1007.08 1006.70 1006.29 1005.83 1005.32 1004.77 1004.22 1003.69 1003.20 1002.80 1002.51 1002.32 1002.26 1002.29
1015.03 1014.89 1014.77 1014.64 1014.49 1014.29 1014.04 1013.75 1013.41 1013.05 1012.69 1012.34 1012.03 1011.76 1011.53 1011.33 1011.14 1010.95 1010.74 1010.49 1010.19 1009.86 1009.49 1009.10 1008.70 1008.31 1007.93 1007.56 1007.19 1006.82 1006.42 1005.99 1005.53 1005.02 1004.50 1003.97 1003.46 1003.00 1002.62 1002.34 1002.15 1002.07 1002.07
1015.10 1014.93 1014.77 1014.58 1014.37 1014.11 1013.81 1013.49 1013.14 1012.79 1012.47 1012.18 1011.94 1011.74 1011.59 1011.45 1011.30 1011.14 1010.93 1010.67 1010.35 1009.98 1009.57 1009.13 1008.68 1008.24 1007.81 1007.40 1006.99 1006.59 1006.17 1005.73 1005.26 1004.76 1004.25 1003.73 1003.23 1002.78 1002.40 1002.10 1001.89 1001.76 1001.71
1015.18 1014.98 1014.77 1014.54 1014.27 1013.96 1013.62 1013.27 1012.93 1012.61 1012.33 1012.10 1011.93 1011.80 1011.71 1011.63 1011.52 1011.38 1011.18 1010.90 1010.55 1010.14 1009.67 1009.18 1008.69 1008.20 1007.73 1007.28 1006.84 1006.42 1005.99 1005.54 1005.07 1004.58 1004.07 1003.56 1003.07 1002.61 1002.21 1001.87 1001.60 1001.40 1001.27
1015.24 1015.03 1014.79 1014.51 1014.20 1013.86 1013.50 1013.13 1012.80 1012.50 1012.26 1012.08 1011.97 1011.90 1011.86 1011.81 1011.73 1011.59 1011.37 1011.07 1010.68 1010.23 1009.72 1009.19 1008.66 1008.14 1007.64 1007.17 1006.73 1006.30 1005.87 1005.43 1004.97 1004.49 1004.00 1003.49 1002.99 1002.52 1002.08 1001.69 1001.36 1001.08 1000.85
1015.26 1015.05 1014.79 1014.49 1014.15 1013.79 1013.41 1013.05 1012.72 1012.45 1012.24 1012.10 1012.01 1011.97 1011.95 1011.91 1011.82 1011.67 1011.42 1011.09 1010.67 1010.18 1009.64 1009.09 1008.53 1008.00 1007.51 1007.05 1006.62 1006.22 1005.81 1005.40 1004.97 1004.51 1004.03 1003.53 1003.03 1002.54 1002.07 1001.63 1001.23 1000.86 1000.54
1015.21 1015.00 1014.73 1014.43 1014.08 1013.71 1013.33 1012.97 1012.65 1012.39 1012.20 1012.07 1012.00 1011.96 1011.92 1011.86 1011.74 1011.55 1011.27 1010.90 1010.44 1009.93 1009.39 1008.83 1008.29 1007.78 1007.32 1006.91 1006.52 1006.16 1005.81 1005.44 1005.05 1004.63 1004.17 1003.69 1003.19 1002.68 1002.19 1001.71 1001.25 1000.83 1000.43
1015.05 1014.84 1014.58 1014.28 1013.93 1013.56 1013.19 1012.84 1012.53 1012.28 1012.08 1011.95 1011.86 1011.80 1011.73 1011.62 1011.46 1011.22 1010.90 1010.50 1010.03 1009.52 1008.98 1008.46 1007.96 1007.51 1007.12 1006.77 1006.46 1006.16 1005.87 1005.56 1005.22 1004.84 1004.42 1003.96 1003.47 1002.96 1002.45 1001.95 1001.46 1001.00 1000.56
1014.76 1014.56 1014.30 1014.00 1013.66 1013.30 1012.95 1012.61 1012.30 1012.05 1011.85 1011.70 1011.59 1011.48 1011.37 1011.21 1011.00 1010.72 1010.37 1009.95 1009.49 1009.00 1008.51 1008.05 1007.63 1007.26 1006.96 1006.70 1006.47 1006.26 1006.05 1005.80 1005.51 1005.17 1004.78 1004.34 1003.87 1003.37 1002.86 1002.35 1001.86 1001.38 1000.93
1014.35 1014.15 1013.89 1013.59 1013.26 1012.92 1012.57 1012.25 1011.95 1011.70 1011.50 1011.33 1011.18 1011.04 1010.87 1010.68 1010.43 1010.12 1009.76 1009.35 1008.92 1008.48 1008.07 1007.70 1007.38 1007.13 1006.93 1006.77 1006.65 1006.52 1006.37 1006.18 1005.94 1005.63 1005.26 1004.84 1004.38 1003.89 1003.39 1002.90 1002.42 1001.95 1001.51
1013.86 1013.64 1013.38 1013.08 1012.76 1012.42 1012.09 1011.77 1011.49 1011.24 1011.03 1010.85 1010.67 1010.50 1010.31 1010.08 1009.81 1009.50 1009.15 1008.78 1008.41 1008.06 1007.75 1007.50 1007.30 1007.17 1007.09 1007.05 1007.01 1006.96 1006.87 1006.73 1006.51 1006.22 1005.86 1005.45 1004.99 1004.51 1004.03 1003.55 1003.09 1002.65 1002.24
1013.34 1013.10 1012.82 1012.51 1012.18 1011.85 1011.53 1011.23 1010.96 1010.72 1010.50 1010.31 1010.12 1009.93 1009.72 1009.48 1009.22 1008.92 1008.62 1008.32 1008.03 1007.79 1007.60 1007.48 1007.43 1007.43 1007.47 1007.52 1007.57 1007.59 1007.54 1007.41 1007.21 1006.92 1006.55 1006.13 1005.67 1005.19 1004.72 1004.26 1003.82 1003.42 1003.05
1012.85 1012.57 1012.26 1011.94 1011.61 1011.28 1010.97 1010.68 1010.42 1010.18 1009.97 1009.77 1009.58 1009.38 1009.16 1008.93 1008.69 1008.44 1008.19 1007.97 1007.79 1007.67 1007.62 1007.64 1007.72 1007.85 1008.00 1008.16 1008.28 1008.34 1008.31 1008.20 1007.98 1007.67 1007.29 1006.84 1006.36 1005.88 1005.40 1004.96 1004.55 1004.18 1003.84
1012.42 1012.10 1011.77 1011.43 1011.09 1010.76 1010.45 1010.17 1009.91 1009.69 1009.48 1009.28 1009.08 1008.88 1008.67 1008.45 1008.23 1008.03 1007.85 1007.72 1007.65 1007.65 1007.73 1007.89 1008.10 1008.35 1008.61 1008.85 1009.03 1009.12 1009.11 1008.99 1008.75 1008.41 1007.99 1007.51 1007.01 1006.50 1006.03 1005.59 1005.20 1004.85 1004.55
1012.06 1011.72 1011.36 1011.00 1010.65 1010.32 1010.02 1009.74 1009.50 1009.27 1009.06 1008.86 1008.66 1008.45 1008.25 1008.04 1007.85 1007.68 1007.57 1007.52 1007.54 1007.66 1007.86 1008.14 1008.47 1008.83 1009.18 1009.49 1009.71 1009.84 1009.83 1009.70 1009.43 1009.06 1008.60 1008.09 1007.55 1007.03 1006.54 1006.10 1005.73 1005.40 1005.13
1011.76 1011.39 1011.02 1010.65 1010.30 1009.97 1009.68 1009.41 1009.17 1008.95 1008.74 1008.54 1008.33 1008.11 1007.89 1007.69 1007.51 1007.37 1007.30 1007.31 1007.42 1007.62 1007.92 1008.30 1008.74 1009.19 1009.62 1009.99 1010.26 1010.40 1010.41 1010.26 1009.98 1009.57 1009.08 1008.54 1007.97 1007.43 1006.93 1006.49 1006.12 1005.82 1005.57
1011.48 1011.10 1010.72 1010.35 1010.02 1009.71 1009.43 1009.18 1008.96 1008.74 1008.53 1008.31 1008.09 1007.85 1007.62 1007.40 1007.22 1007.09 1007.04 1007.09 1007.25 1007.52 1007.90 1008.35 1008.87 1009.39 1009.89 1010.31 1010.62 1010.80 1010.81 1010.66 1010.37 1009.94 1009.43 1008.86 1008.27 1007.71 1007.21 1006.77 1006.40 1006.12 1005.88
Thickness
5685 5684 5681 5679 5678 5677 5675 5675 5674 5674 5673 5673 5672 5672 5670 5670 5669 5667 5665 5664 5662 5660 5658 5656 5654 5652 5650 5647 5644 5641 5638 5634 5629 5630 5632 5632 5630 5628 5627 5625 5624 5622 5621
5684 5682 5680 5678 5676 5674 5673 5673 5673 5672 5671 5671 5670 5669 5668 5667 5665 5664 5662 5661 5658 5655 5653 5651 5649 5648 5644 5641 5637 5634 5631 5628 5624 5620 5621 5622 5621 5620 5619 5617 5616 5615 5614
5683 5680 5678 5676 5674 5672 5672 5672 5670 5670 5669 5668 5667 5666 5665 5664 5662 5660 5658 5656 5653 5651 5649 5646 5644 5642 5638 5635 5631 5628 5624 5622 5618 5614 5613 5614 5614 5613 5611 5609 5609 5607 5607
5680 5678 5675 5674 5672 5670 5670 5669 5668 5668 5666 5665 5664 5663 5662 5660 5658 5656 5654 5651 5649 5647 5645 5643 5640 5636 5632 5629 5626 5622 5618 5614 5612 5609 5607 5606 5605 5605 5602 5599 5598 5599 5598
5677 5676 5674 5673 5672 5670 5668 5667 5667 5666 5665 5664 5662 5661 5660 5657 5654 5651 5649 5648 5644 5642 5641 5639 5636 5633 5629 5624 5621 5616 5612 5608 5605 5603 5600 5599 5597 5594 5592 5591 5589 5590 5590
5675 5674 5673 5672 5670 5668 5666 5665 5664 5664 5663 5661 5660 5658 5656 5654 5650 5647 5644 5643 5641 5639 5636 5634 5632 5629 5625 5620 5616 5612 5607 5603 5600 5597 5594 5591 5589 5588 5586 5584 5582 5580 5580
5672 5672 5672 5671 5669 5667 5666 5664 5662 5661 5660 5658 5657 5655 5652 5649 5646 5643 5640 5638 5637 5635 5633 5630 5628 5626 5621 5617 5613 5609 5605 5601 5597 5592 5589 5587 5585 5583 5580 5577 5575 5572 5571
5671 5671 5671 5670 5668 5666 5665 5662 5661 5659 5657 5656 5654 5652 5650 5646 5643 5640 5637 5635 5634 5632 5630 5627 5624 5620 5617 5612 5609 5605 5601 5598 5595 5591 5587 5585 5582 5579 5576 5572 5570 5568 5568
5671 5670 5670 5669 5667 5665 5663 5661 5660 5658 5656 5654 5653 5651 5648 5643 5640 5637 5634 5633 5632 5630 5628 5625 5621 5616 5611 5607 5604 5601 5598 5595 5594 5590 5586 5582 5579 5576 5572 5567 5564 5562 5561
5670 5670 5670 5669 5666 5664 5662 5660 5659 5657 5655 5654 5652 5650 5647 5643 5638 5634 5631 5631 5629 5628 5625 5620 5616 5612 5607 5603 5599 5596 5593 5591 5589 5586 5583 5580 5577 5574 5570 5564 5560 5556 5554
5671 5670 5669 5667 5666 5664 5661 5660 5658 5656 5655 5652 5650 5648 5646 5641 5635 5631 5628 5626 5625 5623 5621 5618 5613 5609 5605 5601 5596 5593 5590 5587 5584 5582 5580 5577 5574 5571 5568 5564 5560 5556 5551
5670 5668 5667 5666 5665 5664 5661 5659 5657 5655 5652 5650 5648 5645 5643 5639 5634 5630 5626 5622 5620 5618 5616 5614 5610 5606 5602 5598 5594 5591 5588 5584 5582 5579 5576 5573 5570 5568 5565 5563 5559 5556 5552
5668 5666 5665 5665 5664 5662 5660 5658 5655 5653 5650 5648 5646 5642 5639 5636 5631 5627 5623 5620 5617 5613 5612 5609 5605 5602 5599 5596 5593 5588 5585 5582 5579 5576 5572 5570 5568 5565 5563 5560 5558 5554 5550
5666 5665 5664 5663 5662 5660 5659 5657 5654 5651 5648 5646 5643 5639 5636 5633 5628 5624 5621 5618 5614 5611 5607 5605 5602 5599 5596 5593 5590 5587 5583 5580 5576 5573 5570 5567 5565 5563 5559 5557 5553 5550 5547
5664 5663 5663 5662 5660 5658 5655 5653 5651 5648 5646 5642 5640 5637 5633 5628 5623 5619 5616 5614 5610 5606 5603 5602 5601 5599 5595 5591 5588 5585 5581 5577 5573 5570 5567 5564 5561 5558 5556 5553 5549 5546 5542
5663 5662 5662 5661 5659 5658 5655 5651 5648 5646 5643 5640 5636 5632 5629 5625 5621 5617 5614 5610 5607 5603 5601 5601 5599 5597 5593 5590 5586 5582 5578 5574 5570 5567 5564 5560 5557 5555 5552 5549 5546 5542 5538
5662 5661 5661 5661 5659 5658 5656 5652 5648 5643 5640 5637 5634 5631 5626 5622 5618 5615 5611 5608 5605 5602 5600 5599 5597 5594 5591 5588 5584 5580 5575 5572 5568 5564 5560 5557 5554 5551 5549 5545 5542 5538 5534
5664 5662 5661 5660 5659 5658 5656 5653 5651 5647 5642 5639 5634 5629 5624 5620 5616 5612 5608 5605 5606 5603 5600 5598 5595 5592 5589 5585 5581 5577 5572 5568 5564 5560 5557 5553 5550 5547 5544 5541 5538 5534 5531
5664 5663 5661 5660 5660 5658 5656 5654 5651 5647 5643 5640 5636 5629 5623 5619 5614 5609 5605 5603 5603 5602 5600 5597 5594 5590 5586 5582 5578 5573 5569 5564 5560 5556 5553 5550 5547 5544 5541 5538 5535 5531 5528
5663 5660 5659 5659 5658 5656 5655 5652 5648 5644 5641 5638 5634 5629 5624 5619 5615 5611 5606 5604 5601 5599 5597 5594 5591 5587 5583 5579 5575 5571 5567 5562 5558 5553 5549 5547 5545 5542 5539 5536 5533 5529 5526
5664 5663 5658 5657 5655 5654 5651 5649 5646 5642 5639 5636 5632 5628 5622 5619 5616 5612 5608 5604 5600 5597 5594 5591 5588 5583 5580 5576 5572 5569 5564 5559 5554 5550 5547 5544 5542 5540 5537 5535 5532 5528 5524
5662 5661 5659 5657 5654 5651 5649 5647 5644 5640 5637 5634 5630 5626 5619 5617 5615 5611 5607 5603 5600 5596 5593 5588 5585 5581 5577 5573 5569 5565 5560 5555 5550 5547 5544 5542 5540 5538 5536 5533 5529 5526 5522
5659 5659 5657 5655 5653 5649 5646 5645 5642 5639 5635 5632 5628 5624 5619 5615 5613 5609 5605 5602 5598 5595 5592 5587 5583 5579 5575 5571 5566 5561 5556 5550 5546 5542 5540 5539 5537 5536 5534 5531 5528 5525 5521
5657 5656 5655 5652 5651 5649 5646 5642 5640 5636 5633 5630 5626 5622 5618 5614 5610 5607 5604 5600 5597 5593 5589 5585 5581 5577 5572 5568 5563 5558 5552 5547 5543 5541 5538 5536 5535 5534 5532 5529 5526 5524 5520
5655 5654 5652 5650 5648 5645 5643 5639 5636 5633 5630 5627 5623 5620 5617 5613 5609 5606 5603 5599 5595 5592 5588 5583 5579 5575 5570 5565 5560 5554 5549 5546 5542 5539 5537 5536 5534 5533 5531 5528 5525 5523 5519
5653 5651 5650 5648 5646 5642 5639 5635 5633 5630 5627 5624 5621 5618 5614 5611 5608 5604 5601 5597 5593 5590 5586 5582 5577 5572 5567 5563 5557 5552 5548 5545 5542 5539 5536 5535 5534 5531 5529 5527 5525 5522 5519